Odiham, United Kingdom

10:18 PM BST on April 30, 2017 (GMT +0100)
Odiham Air Base

Weather History for EGVO - December, 2012

Change the Weather History Date:

Friday, December 7, 2012

  Actual Average Record
Temperature  
Mean Temperature 39 °F -  
Max Temperature 43 °F - - ()
Min Temperature 35 °F - - ()
Degree Days  
Heating Degree Days 26    
Moisture  
Dew Point 35 °F    
Average Humidity 83    
Maximum Humidity 93    
Minimum Humidity 68    
Precipitation  
Precipitation 0.04 in - - ()
Sea Level Pressure  
Sea Level Pressure 29.63 in    
Wind  
Wind Speed 15 mph ()    
Max Wind Speed 22 mph    
Max Gust Speed 34 mph    
Visibility 6.9 miles    
Events Rain , Snow    
T = Trace of Precipitation, MM = Missing Value Source: Averaged Metar Reports

Daily Weather History Graph

Daily Weather History Graph

Search for Another Location

Airport or City:

Trip Planner

Search our weather history database for the weather conditions in past years. The results will help you decide how hot, cold, wet, or windy it might be!

Date:

Astronomy

Dec. 07, 2012 Rise Set
Actual Time 7:53 AM GMT 3:56 PM GMT
Civil Twilight 7:14 AM GMT 4:36 PM GMT
Nautical Twilight 6:32 AM GMT 5:18 PM GMT
Astronomical Twilight 5:51 AM GMT 5:58 PM GMT
Moon 12:16 AM GMT (12/7) 12:22 PM GMT (12/7)
Length of Visible Light 9h 21m
Length of Day
8h 02m
Last Quarter, 41% of the Moon is Illuminated
Dec 7
Last Quarter
Dec 13
New
Dec 20
First Quarter
Dec 28
Full
Jan 5
Last Quarter

Hourly Weather History & Observations

Time (GMT) Temp. Windchill Dew Point Humidity Pressure Visibility Wind Dir Wind Speed Gust Speed Precip Events Conditions
12:50 AM 39.2 °F 30.8 °F 35.6 °F 87% 29.44 in 6.2 mi WSW 15.0 mph - N/A Rain Light Rain
1:50 AM 39.2 °F 31.6 °F 37.4 °F 93% 29.44 in 6.2 mi West 12.7 mph - N/A   Overcast
2:50 AM 38 °F - 35 °F 85% 29.48 in 16 mi West 11.5 mph - -   Partly Cloudy
2:50 AM 37.4 °F 29.8 °F 35.6 °F 93% 29.44 in 6.2 mi West 11.5 mph - N/A   Partly Cloudy
3:50 AM 37.4 °F 28.2 °F 33.8 °F 87% 29.44 in 6.2 mi WSW 16.1 mph - N/A   Partly Cloudy
4:50 AM 37.4 °F 28.2 °F 33.8 °F 87% 29.44 in - WSW 16.1 mph - N/A   Clear
5:50 AM 38 °F - 34 °F 81% 29.48 in 12 mi West 18.4 mph - - Rain Light Rain
5:50 AM 37.4 °F 27.5 °F 33.8 °F 87% 29.44 in - West 18.4 mph - N/A   Clear
6:50 AM 35.6 °F 26.6 °F 33.8 °F 93% 29.47 in 6.2 mi West 13.8 mph - N/A   Scattered Clouds
7:50 AM 35.6 °F 25.9 °F 33.8 °F 93% 29.47 in - West 16.1 mph - N/A   Clear
8:50 AM 37 °F - 34 °F 85% 29.52 in 4 mi West 19.6 mph - - Snow Heavy Snow
8:50 AM 37.4 °F 27.2 °F 33.8 °F 87% 29.50 in 3.7 mi West 19.6 mph - N/A Rain , Snow Rain
9:50 AM 37.4 °F 27.5 °F 35.6 °F 93% 29.53 in 6.2 mi WNW 18.4 mph - N/A   Mostly Cloudy
10:50 AM 39.2 °F 29.3 °F 35.6 °F 87% 29.56 in 6.2 mi WNW 20.7 mph - N/A   Mostly Cloudy
11:50 AM 42 °F - 35 °F 68% 29.59 in 25 mi WNW 21.9 mph - -   Partly Cloudy
11:50 AM 42.8 °F 33.8 °F 35.6 °F 76% 29.56 in 6.2 mi WNW 21.9 mph - N/A   Partly Cloudy
12:50 PM 42.8 °F 34.3 °F 35.6 °F 76% 29.59 in 6.2 mi NW 19.6 mph 34.5 mph N/A   Partly Cloudy
1:50 PM 42.8 °F 34.8 °F 35.6 °F 76% 29.59 in 6.2 mi NW 17.3 mph 31.1 mph N/A   Scattered Clouds
2:50 PM 42 °F - 37 °F 75% 29.65 in 25 mi WNW 19.6 mph - -   Partly Cloudy
2:50 PM 42.8 °F 34.3 °F 37.4 °F 81% 29.62 in 6.2 mi WNW 19.6 mph - N/A   Scattered Clouds
3:50 PM 41.0 °F 32.5 °F 35.6 °F 81% 29.65 in 6.2 mi WNW 17.3 mph - N/A   Partly Cloudy
4:50 PM 39.2 °F 31.6 °F 35.6 °F 87% 29.71 in 6.2 mi NW 12.7 mph - N/A   Partly Cloudy
5:50 PM 39 °F - 34 °F 76% 29.77 in 22 mi NW 15.0 mph - -   Scattered Clouds
5:50 PM 39.2 °F 30.8 °F 33.8 °F 81% 29.74 in 6.2 mi NW 15.0 mph - N/A   Partly Cloudy
6:50 PM 39.2 °F 30.2 °F 33.8 °F 81% 29.77 in 6.2 mi NW 17.3 mph - N/A   Mostly Cloudy
7:50 PM 41.0 °F 31.9 °F 33.8 °F 76% 29.83 in 6.2 mi NNW 19.6 mph - N/A   Overcast
8:50 PM 41 °F - 35 °F 72% 29.88 in 25 mi NNW 17.3 mph - -   Overcast
8:50 PM 41.0 °F 32.5 °F 35.6 °F 81% 29.86 in 6.2 mi NNW 17.3 mph - N/A   Mostly Cloudy
9:50 PM 41.0 °F 32.5 °F 35.6 °F 81% 29.89 in 6.2 mi NNW 17.3 mph - N/A   Mostly Cloudy
10:50 PM 41.0 °F 32.5 °F 35.6 °F 81% 29.95 in 6.2 mi NNW 17.3 mph - N/A   Mostly Cloudy
11:50 PM 40 °F - 36 °F 80% 30.01 in 14 mi NNW 15.0 mph - -   Mostly Cloudy
11:50 PM 41.0 °F 33.1 °F 35.6 °F 81% 29.98 in 6.2 mi NNW 15.0 mph - N/A   Mostly Cloudy